Change the Weather History Date:

Thursday, January 3, 2013

  Actual Average Record
Temperature  
Mean Temperature 32 °F -  
Max Temperature 50 °F - - ()
Min Temperature 13 °F - - ()
Degree Days  
Heating Degree Days 34    
Moisture  
Dew Point 14 °F    
Average Humidity 41    
Maximum Humidity 72    
Minimum Humidity 17    
Precipitation  
Precipitation 0.00 in - - ()
Sea Level Pressure  
Sea Level Pressure 30.08 in    
Wind  
Wind Speed 6 mph ()    
Max Wind Speed 14 mph    
Max Gust Speed 20 mph    
T = Trace of Precipitation, MM = Missing Value Source: Averaged Metar Reports

Daily Weather History Graph

Daily Weather History Graph

Search for Another Location

Airport or City:

Trip Planner

Search our weather history database for the weather conditions in past years. The results will help you decide how hot, cold, wet, or windy it might be!

Date:

Astronomy

Jan. 03, 2013 Rise Set
Actual Time 8:32 AM MST 4:46 PM MST
Civil Twilight 7:54 AM MST 5:24 PM MST
Nautical Twilight 7:13 AM MST 6:05 PM MST
Astronomical Twilight 6:34 AM MST 6:44 PM MST
Moon No Moon Rise 11:06 AM MST
Length of Visible Light 9h 29m
Length of Day
8h 13m
Waning Gibbous, 65% of the Moon is Illuminated
Jan 3
Waning Gibbous
Jan 4
Last Quarter
Jan 11
New
Jan 18
First Quarter
Jan 26
Full

Hourly Weather History & Observations

Time (MST) Temp. Windchill Dew Point Humidity Pressure Visibility Wind Dir Wind Speed Gust Speed Precip Events Conditions
12:00 AM 29.5 °F 25.9 °F 8.1 °F 41% 30.15 in - WSW 3.5 mph - N/A   Unknown
1:00 AM 41.5 °F 37.1 °F 8.2 °F 25% 30.10 in - WNW 6.9 mph - N/A   Unknown
2:00 AM 38.5 °F 30.3 °F 13.3 °F 36% 30.09 in - WNW 13.8 mph 19.6 mph N/A   Unknown
3:00 AM 38.8 °F 30.8 °F 12.6 °F 34% 30.09 in - West 13.8 mph - N/A   Unknown
4:00 AM 39.0 °F 36.8 °F 12.6 °F 34% 30.10 in - NW 3.5 mph - N/A   Unknown
5:00 AM 40 °F - 10 °F 17% 30.10 in - NNW 1.2 mph - -  
5:00 AM 40.5 °F - 10.2 °F 29% 30.10 in - NNW 1.2 mph - N/A   Unknown
6:00 AM 42.4 °F 37.5 °F 10.2 °F 27% 30.09 in - NW 8.1 mph - N/A   Unknown
7:00 AM 40.3 °F 34.9 °F 12.0 °F 32% 30.10 in - NW 8.1 mph - N/A   Unknown
8:00 AM 39.4 °F 33.2 °F 11.3 °F 32% 30.10 in - West 9.2 mph - N/A   Unknown
9:00 AM 40.1 °F 33.2 °F 11.5 °F 31% 30.09 in - West 11.5 mph 17.3 mph N/A   Unknown
10:00 AM 40.6 °F 36.0 °F 11.5 °F 30% 30.11 in - WNW 6.9 mph - N/A   Unknown
11:00 AM 42 °F - 13 °F 18% 30.11 in - WNW 8.1 mph - -  
11:00 AM 41.7 °F 36.7 °F 13.3 °F 32% 30.11 in - WNW 8.1 mph - N/A   Unknown
12:00 PM 46.4 °F 42.9 °F 13.6 °F 27% 30.06 in - North 6.9 mph - N/A   Unknown
1:00 PM 45.1 °F - 16.7 °F 32% 30.06 in - NW 2.3 mph - N/A   Unknown
2:00 PM 48.7 °F - 16.9 °F 28% 30.04 in - SSE 4.6 mph - N/A   Unknown
3:00 PM 40.3 °F 37.1 °F 21.0 °F 46% 30.06 in - SE 4.6 mph - N/A   Unknown
4:00 PM 37.4 °F 32.8 °F 19.8 °F 49% 30.06 in - East 5.8 mph - N/A   Unknown
5:00 PM 29 °F - 18 °F 52% 30.06 in - East 10.4 mph - -  
5:00 PM 29.3 °F 20.2 °F 18.1 °F 63% 30.06 in - East 10.4 mph - N/A   Unknown
6:00 PM 27.0 °F 21.6 °F 16.5 °F 65% 30.06 in - WNW 4.6 mph - N/A   Unknown
7:00 PM 26.8 °F 18.5 °F 16.2 °F 64% 30.06 in - North 8.1 mph - N/A   Unknown
8:00 PM 23.7 °F 12.6 °F 16.0 °F 72% 30.06 in - North 11.5 mph - N/A   Unknown
9:00 PM 27.1 °F 18.2 °F 13.5 °F 56% 30.05 in - North 9.2 mph - N/A   Unknown
10:00 PM 28.2 °F 20.2 °F 13.1 °F 53% 30.06 in - North 8.1 mph - N/A   Unknown
11:00 PM 23 °F - 13 °F 55% 30.04 in - North 4.6 mph - -  
11:00 PM 23.2 °F 17.2 °F 13.5 °F 66% 30.04 in - North 4.6 mph - N/A   Unknown